Regional Weather Roundup
Issued by NWS

Home | Current Version | Previous Version | Graphics & Text | Print | Product List | Glossary On
Versions: 1 2 3 4 5 6 7 8 9 10 11 12 13 14 15 16 17 18 19 20 21 22 23 24 25 26 27 28 29 30 31 32 33 34 35 36 37 38 39 40 41 42 43 44 45 46 47 48 49 50
000
ASUS45 KSLC 170110
RWRUT

UTAH REGIONAL WEATHER ROUNDUP
NATIONAL WEATHER SERVICE SALT LAKE CITY UT
700 PM MDT TUE SEP 16 2014

UTZ001>011-023>025-170200-

NORTHERN UTAH

CITY           SKY/WX    TMP DP  RH WIND       PRES   REMARKS
HILL AFB       CLEAR     86  44  22 E3        30.01F
LOGAN          CLEAR     86  47  25 SE5       29.98F
OGDEN          CLEAR     88  39  17 CALM      29.98F
PROVO AIRPORT  PTCLDY    79  55  44 VRB3      30.00F
SALT LAKE CITY PTCLDY    90  37  15 CALM      29.95F
VERNAL         PTCLDY    78  41  26 N13       30.09S
WENDOVER       PTCLDY    88  37  16 SE8       29.93S
HEBER CITY     CLEAR     79  37  22 CALM      30.09S
WEST JORDAN    CLEAR     86  43  22 CALM      30.00F

$$

UTZ012>022-026-027-170200-

SOUTHERN UTAH

CITY           SKY/WX    TMP DP  RH WIND       PRES   REMARKS
BRYCE CANYON   PTCLDY    72  42  34 S7        30.26S
CEDAR CITY     PTCLDY    82  40  22 CALM      30.07S
MILFORD        CLEAR     88  34  14 S9        30.01S
MOAB/CYNLANDS  CLEAR     89  37  16 CALM      30.00S
PRICE          CLEAR     83  34  17 E5        30.11F
ST GEORGE      CLEAR     97  45  16 NW5       29.86S HX  93

$$

REGIONAL REPORTS     COLORADO/ARIZONA

CITY           SKY/WX    TMP DP  RH WIND       PRES   REMARKS
CRAIG, CO      CLEAR     68  42  38 S5        30.16F
GRAND JUNCTION CLEAR     81  43  26 W5        30.05F
RIFLE          CLEAR     77  47  34 CALM      30.11S
MONTROSE       CLEAR     80  40  23 N5        30.14S
CORTEZ         CLEAR     72  50  45 S5        30.16S
PAGE, AZ       PTCLDY    87  44  22 SE14      30.00F
GRAND CANYON   CLOUDY    74  47  38 SE3       30.20R
KINGMAN        CLOUDY    72  63  73 SE18G25   29.98R
FLAGSTAFF      CLOUDY    62  57  83 S8        30.24S

$$

REGIONAL REPORTS    NEVADA/IDAHO/WYOMING

CITY           SKY/WX    TMP DP  RH WIND       PRES   REMARKS
LAS VEGAS, NV  MOCLDY    98  55  23 S10       29.77R HX  96
ELY            CLEAR     82  37  20 S12       30.12S
ELKO           CLEAR     89  33  13 NW12      29.97F
POCATELLO, ID  PTCLDY    84  39  20 S12       29.97S
BURLEY         CLEAR     83  45  26 W3        29.92F
EVANSTON, WY   CLEAR     75  36  24 NW9       30.21F
ROCK SPRINGS   MOCLDY    73  36  25 W9        30.20R

$$


USA.gov is the U.S. government's official web portal to all federal, state and local government web resources and services.